This is the latest recevied weather packets stored in our database for station/object K4AVM-13. If no packets are shown the sender has not sent any weather packets the latest 10 day(s).
| Time | Temp. | Humidity | Pressure | Rain* | Wind** | Luminosity | Snow |
|---|---|---|---|---|---|---|---|
| 1778273077 | 22.78° C | 31% | 1014.9 hPa | 0 mm | - | 399 W/m² | - |
| 1778272772 | 23.33° C | 31% | 1014.9 hPa | 0 mm | - | 409 W/m² | - |
| 1778272468 | 23.89° C | 30% | 1014.8 hPa | 0 mm | - | 425 W/m² | - |
| 1778272164 | 23.33° C | 31% | 1015 hPa | 0 mm | - | 440 W/m² | - |
| 1778271862 | 23.89° C | 31% | 1015 hPa | 0 mm | - | 453 W/m² | - |
| 1778271558 | 22.22° C | 32% | 1015.1 hPa | 0 mm | - | 471 W/m² | - |
| 1778271255 | 22.22° C | 31% | 1015.1 hPa | 0 mm | - | 478 W/m² | - |
| 1778270952 | 22.22° C | 32% | 1015 hPa | 0 mm | - | 498 W/m² | - |
| 1778270649 | 22.78° C | 31% | 1015.1 hPa | 0 mm | - | 504 W/m² | - |
| 1778270344 | 22.78° C | 31% | 1015.2 hPa | 0 mm | - | 516 W/m² | - |
| 1778270041 | 22.78° C | 30% | 1015.2 hPa | 0 mm | - | 525 W/m² | - |
| 1778269737 | 22.22° C | 31% | 1015.3 hPa | 0 mm | - | 539 W/m² | - |
| 1778269435 | 22.22° C | 30% | 1015.5 hPa | 0 mm | - | 552 W/m² | - |
| 1778269132 | 21.67° C | 33% | 1015.4 hPa | 0 mm | - | 561 W/m² | - |
| 1778268828 | 22.22° C | 32% | 1015.5 hPa | 0 mm | - | 569 W/m² | - |
| 1778268525 | 22.78° C | 31% | 1015.4 hPa | 0 mm | - | 579 W/m² | - |
| 1778268222 | 22.22° C | 30% | 1015.7 hPa | 0 mm | - | 591 W/m² | - |
| 1778267919 | 21.67° C | 35% | 1015.8 hPa | 0 mm | - | 603 W/m² | - |
| 1778267616 | 22.22° C | 34% | 1015.9 hPa | 0 mm | - | 612 W/m² | - |
| 1778267313 | 21.11° C | 34% | 1015.9 hPa | 0 mm | - | 620 W/m² | - |
| 1778267010 | 21.67° C | 33% | 1016.1 hPa | 0 mm | - | 626 W/m² | - |
| 1778266706 | 21.67° C | 33% | 1016.1 hPa | 0 mm | - | 633 W/m² | - |
| 1778266404 | 21.67° C | 31% | 1016.1 hPa | 0 mm | - | 641 W/m² | - |
| 1778266101 | 21.11° C | 30% | 1016.3 hPa | 0 mm | - | 652 W/m² | - |
| 1778265798 | 21.67° C | 30% | 1016.4 hPa | 0 mm | - | 656 W/m² | - |
* Rain latest hour (hover to see other rain measurements)
** Current wind speed in m/s (hover to see current wind gust speed)